Retour au catalogue

TRANSIT 5B-2

ActifNavigationPO
NORAD 704·PAYLOAD·🇺🇸 United States

Lancé Dec 5, 1963 depuis Vandenberg Space Force Base

Loading…

Prochains Passages (prochaines 24 heures)

TLE

FraisSource: Space-Track

Époque: Sep 14, 2026, 10:31 UTC

1 00704U 63049B   26257.43831278  .00000032  00000-0  36277-4 0  9995
2 00704  89.9183  69.7150 0036307  45.0072 342.2420 13.47134380 83345

Suivez TRANSIT 5B-2 en temps réel avec AllMySat

Download on the App Store